Wind_Speed
50 49 48 48 40 37 33 42 44 25 26 37 43 51 44 52 57 59 68 71 62 67 59 73 70 65 65 55 59 60 51 46 45 41 38 36 38 35 33 30 30 26 27 28 29 28 29 28 27
52 50 51 49 46 45 37 42 37 31 26 30 35 47 45 46 56 61 65 77 72 65 68 61 70 68 68 61 60 58 59 49 48 40 39 41 40 37 34 32 30 30 26 29 29 30 32 32 31
53 48 51 53 50 42 47 41 35 29 25 30 30 34 38 44 46 59 66 76 83 68 71 55 62 70 70 62 60 62 56 53 50 47 43 44 42 41 38 36 34 32 30 26 33 34 36 35 34
54 52 54 54 52 52 52 40 36 24 26 23 29 30 36 41 46 51 63 73 79 76 68 70 59 70 80 69 67 57 64 60 53 50 46 44 46 43 40 39 37 37 36 34 35 36 38 37 35
53 54 51 50 53 51 49 40 37 35 30 24 26 26 31 43 44 48 54 65 78 73 72 70 71 68 75 68 69 61 68 59 57 54 49 47 49 47 46 43 40 42 45 44 41 40 42 38 36
49 52 52 49 51 50 41 36 33 31 30 31 24 27 28 38 47 48 46 56 72 76 80 72 74 67 65 78 64 62 59 61 62 55 53 47 50 51 50 44 47 49 52 51 47 44 45 44 39
46 53 48 45 48 48 43 35 32 29 29 30 29 24 24 36 45 43 48 50 67 76 78 82 81 72 63 72 66 62 54 60 65 57 52 53 49 47 53 50 53 53 54 53 51 46 46 44 42
44 49 47 40 42 43 44 36 32 30 31 32 29 26 20 31 43 48 53 54 59 76 85 83 81 81 66 71 75 72 68 66 65 62 56 59 56 58 57 53 59 60 57 56 56 53 50 47 44
49 49 44 42 37 39 42 35 29 28 30 29 31 30 27 21 37 47 51 54 56 64 83 81 86 79 75 70 74 71 71 71 69 69 59 58 56 55 60 62 59 60 58 56 58 58 54 49 50
57 51 47 44 41 37 33 36 36 34 28 29 29 29 29 27 28 38 46 50 59 66 71 87 84 85 77 76 79 75 72 76 75 72 62 55 52 64 66 66 69 65 64 63 61 60 59 59 58
54 51 50 47 40 39 34 33 37 38 34 34 34 30 32 30 29 31 38 43 52 65 71 81 81 86 81 79 86 85 80 75 77 77 68 55 50 58 56 67 75 72 72 71 69 68 65 62 62
53 50 48 45 38 35 36 32 33 32 34 34 34 35 33 35 31 34 32 40 45 57 69 75 79 83 86 85 85 86 85 82 80 79 73 61 63 41 56 65 65 73 72 70 73 73 74 74 70
49 47 47 43 38 36 39 33 43 34 34 38 40 37 37 35 35 31 35 35 42 53 59 72 80 84 87 91 86 90 90 85 84 85 78 68 68 59 58 67 67 64 72 74 79 77 74 73 73
55 47 47 42 36 37 41 35 45 42 41 44 46 42 40 39 40 33 32 37 41 48 58 63 79 83 87 89 91 89 93 91 83 89 83 85 71 74 56 56 63 67 69 66 73 77 80 77 76
56 48 46 46 42 38 42 44 48 48 47 50 49 48 42 42 41 37 33 35 41 45 52 63 68 84 86 91 95 92 93 93 92 90 94 87 88 80 76 68 70 69 72 73 71 72 75 79 82
54 50 47 47 47 46 47 51 51 51 55 57 55 57 50 44 41 39 36 35 40 44 49 56 68 77 88 89 95 99 92 94 93 91 99 94 91 91 84 83 76 68 69 72 75 74 71 69 71
56 51 49 48 44 45 50 57 55 53 59 63 63 63 60 49 41 38 37 36 38 45 48 51 63 73 83 90 95 99 100 100 97 96 95 98 95 92 86 84 82 78 77 78 75 75 76 79 79
61 58 54 51 51 53 51 58 62 62 63 66 71 72 66 51 43 36 34 39 39 44 48 50 55 67 79 88 95 97 105 102 106 103 97 101 98 97 94 89 93 91 86 79 81 85 77 79 79
65 63 57 56 55 52 49 59 65 69 68 71 73 81 71 54 45 37 34 35 41 42 47 50 55 61 70 81 92 98 102 104 106 109 105 100 98 100 100 97 92 95 94 86 78 83 81 81 78
69 66 65 64 62 55 59 67 70 73 73 76 80 88 75 54 44 39 36 36 39 42 44 50 56 58 69 75 88 96 105 106 108 110 110 106 100 95 97 96 92 91 89 88 81 79 79 78 81
74 72 73 69 67 66 67 65 71 76 78 80 90 86 72 56 48 43 38 35 37 41 45 48 56 60 65 75 81 95 104 110 113 112 111 107 108 102 101 96 96 92 88 85 86 79 75 73 72
81 82 81 76 73 70 77 69 73 80 86 91 90 84 68 59 51 46 40 39 38 42 46 49 52 61 64 72 79 89 102 111 116 115 114 113 111 111 110 105 102 93 91 86 87 86 80 77 77
84 86 85 82 77 75 82 84 82 89 95 93 89 76 66 59 52 48 44 41 42 44 46 50 53 57 65 69 76 85 97 109 115 117 116 113 116 115 116 113 109 103 91 88 90 83 80 80 81
87 87 87 84 84 85 87 90 87 101 100 97 85 70 65 60 57 51 49 46 44 46 49 52 55 58 64 70 74 80 92 107 117 119 118 116 116 115 115 116 114 112 103 95 90 89 86 82 82
89 90 91 87 87 88 95 96 98 107 111 99 80 66 60 56 55 52 51 53 53 51 52 55 58 60 63 70 75 79 88 98 114 121 122 122 118 119 117 112 113 114 114 104 96 95 92 91 85
91 94 96 94 92 93 100 105 109 114 106 93 80 69 66 65 63 61 57 54 56 58 58 60 65 65 66 69 74 79 84 94 104 121 125 126 125 125 122 119 114 114 117 114 104 100 95 97 96
93 95 99 102 104 104 106 112 117 108 97 89 84 75 70 69 72 72 71 67 59 60 64 66 69 73 73 71 74 77 81 89 100 111 126 135 133 129 130 126 122 116 117 115 112 108 106 95 96
98 101 105 109 112 114 116 120 107 98 93 86 84 85 85 85 84 82 81 77 72 72 72 74 73 76 79 79 79 82 84 85 96 106 118 131 138 136 135 132 130 126 120 120 118 115 111 109 99
100 105 110 112 122 124 132 99 98 99 93 88 87 88 92 93 90 84 77 71 73 72 73 77 82 81 85 88 89 88 89 91 92 103 112 123 134 141 142 141 135 134 130 127 123 121 119 108 103
106 110 114 119 122 128 127 97 92 95 95 98 98 99 94 86 83 79 72 67 64 65 69 71 79 85 87 89 92 95 93 96 96 98 108 114 127 136 144 145 144 138 136 132 130 125 124 121 110
Wind_Direction
327 330 327 323 324 333 327 323 323 309 292 269 259 256 254 240 223 217 216 214 215 222 224 234 236 234 233 230 229 231 231 235 234 236 240 240 246 242 236 242 244 243 253 254 253 253 251 249 245
329 327 329 323 327 327 326 325 325 320 298 286 261 260 260 248 234 218 215 214 214 216 216 227 232 237 238 230 227 230 233 233 232 234 237 245 247 235 236 241 247 241 243 253 257 254 250 248 248
331 332 328 326 328 333 332 335 328 319 311 296 271 245 250 251 241 225 213 217 217 210 220 221 228 234 232 228 227 230 230 231 232 230 239 241 244 238 237 239 247 250 246 247 253 251 250 247 247
331 331 330 326 327 326 331 331 330 329 310 293 283 249 240 243 243 232 217 217 218 212 216 217 219 229 232 232 233 229 232 233 233 231 229 235 241 239 239 243 246 244 242 239 242 250 252 241 245
329 330 331 331 327 326 328 325 327 328 319 302 292 274 247 240 239 240 225 220 215 213 208 218 226 227 226 227 231 231 234 236 235 233 231 232 240 237 241 246 251 247 245 240 238 244 251 250 243
330 330 329 327 323 323 324 321 327 329 326 320 307 291 244 243 239 237 232 224 218 214 209 213 219 225 233 230 230 230 229 231 233 237 232 234 238 238 241 246 251 249 247 247 246 247 250 256 253
331 334 331 322 317 323 326 321 325 328 328 322 317 309 273 245 241 240 233 227 218 215 213 212 214 219 220 219 222 226 226 227 227 231 232 234 234 241 240 248 250 251 250 248 248 246 249 253 259
327 332 336 322 314 318 322 316 324 329 338 334 326 314 299 261 241 240 234 230 219 216 215 215 212 216 219 219 221 225 221 221 226 228 230 231 238 243 242 244 250 253 252 249 248 249 249 252 259
330 325 328 321 314 313 316 310 314 323 329 339 335 325 307 279 254 244 243 235 225 218 217 216 216 212 216 217 216 217 219 218 221 225 229 229 235 241 245 247 248 249 249 250 251 248 248 251 261
331 328 324 319 320 315 312 310 311 314 321 327 332 331 321 300 273 260 250 242 234 225 216 217 217 215 214 217 215 210 212 219 219 221 219 227 243 245 245 244 242 243 244 248 251 252 249 257 258
331 332 329 320 314 318 318 314 307 309 313 320 325 331 327 324 291 273 262 252 238 231 221 217 216 217 214 215 218 214 213 217 219 219 217 221 207 241 242 245 245 244 244 246 247 247 251 253 256
327 328 327 317 318 320 327 333 325 323 323 314 320 324 324 322 315 288 271 255 244 234 230 220 215 215 214 213 217 215 216 219 221 221 217 212 212 227 245 252 248 249 246 247 248 249 250 252 253
326 329 328 324 325 329 334 333 342 325 331 327 324 317 319 318 313 304 282 260 251 237 231 227 219 216 215 212 215 215 215 217 220 222 222 212 217 219 232 240 247 246 246 251 254 255 254 255 257
323 325 325 322 322 326 334 339 344 337 336 333 331 321 319 315 306 302 289 269 251 244 231 227 224 219 216 213 214 216 214 214 218 225 225 222 213 215 220 233 243 246 247 249 248 249 251 254 256
322 322 321 319 315 321 329 333 340 342 335 332 332 328 319 316 306 297 288 271 260 246 239 228 225 223 220 214 214 215 215 214 217 222 226 222 224 218 229 235 240 242 246 242 249 250 252 254 257
323 322 318 322 321 321 328 327 331 336 338 335 334 330 321 312 305 296 285 273 259 253 242 231 225 223 223 220 215 216 215 213 215 217 223 221 224 224 226 231 235 238 239 240 247 250 252 253 254
320 322 319 322 326 329 325 321 331 334 336 334 332 332 327 313 305 294 282 275 256 253 247 239 228 224 223 222 218 216 218 216 214 217 219 222 221 223 223 225 231 236 239 243 241 249 254 255 254
322 317 320 322 324 327 330 324 329 333 331 331 332 332 328 314 303 293 281 272 262 245 247 239 234 224 222 224 223 218 218 218 218 219 218 221 222 223 225 226 231 235 240 244 247 246 252 255 258
321 322 320 322 323 329 331 333 331 326 330 330 328 332 326 312 304 295 281 267 261 252 244 241 234 227 223 221 223 223 219 218 220 221 219 220 221 224 226 228 232 235 237 242 251 248 250 252 254
321 321 320 319 322 328 328 335 328 322 325 328 326 331 322 310 303 293 281 269 260 255 244 242 235 230 223 222 221 221 222 221 221 220 221 220 220 219 221 224 228 232 237 240 247 250 255 257 256
320 321 321 318 319 325 327 339 325 319 325 326 326 324 317 310 299 293 286 271 257 253 246 240 236 231 228 221 221 219 220 222 221 222 221 221 221 219 219 220 227 231 234 240 244 247 249 252 256
320 321 320 319 320 324 322 338 321 321 322 327 324 317 313 307 300 291 283 273 261 254 247 242 235 231 228 224 220 220 219 220 222 222 224 224 223 222 220 223 226 231 235 237 241 245 246 248 251
318 317 317 319 320 323 319 325 327 326 327 326 321 314 308 304 299 290 280 271 264 257 253 241 237 231 229 226 221 219 220 219 221 223 224 225 224 225 225 225 227 230 232 234 239 240 245 247 252
316 316 318 319 320 324 327 330 327 326 326 323 318 310 305 304 297 287 278 271 263 257 254 248 238 234 231 228 225 221 219 221 219 221 223 222 225 223 226 227 228 230 230 234 236 238 239 246 249
315 317 316 320 323 323 325 330 327 326 322 320 315 311 305 300 295 289 280 272 264 256 249 246 241 237 233 229 228 226 222 219 222 220 221 223 223 223 224 225 228 229 230 232 234 238 239 242 245
315 317 318 321 322 327 328 328 328 323 319 318 317 311 305 303 301 296 286 274 265 261 253 244 240 237 232 231 229 228 227 222 220 222 220 222 223 222 223 224 226 229 228 231 234 236 240 242 244
315 317 318 318 322 325 330 330 327 320 317 318 314 310 304 300 298 294 289 282 267 260 258 252 243 238 234 231 229 228 227 225 222 221 221 220 222 223 224 225 225 228 228 231 231 236 237 240 245
318 317 319 320 324 328 329 330 322 316 316 314 311 309 305 299 294 290 289 285 277 270 259 251 245 237 235 232 231 228 227 225 224 222 222 222 221 222 225 227 227 228 229 231 233 234 238 239 239
319 321 320 324 326 327 326 331 318 317 315 312 308 302 296 297 294 293 290 282 277 268 258 250 244 236 232 233 232 231 229 226 223 223 222 223 223 223 225 227 228 227 230 232 233 235 235 236 241
320 320 323 326 325 324 328 329 323 317 314 308 302 302 301 299 296 294 291 282 273 268 260 249 242 240 235 233 234 233 231 228 227 223 223 223 225 224 225 226 228 229 230 232 234 235 235 235 238
Height
10706 10699 10694 10689 10684 10682 10678 10674 10666 10668 10665 10662 10668 10669 10679 10686 10690 10702 10708 10717 10721 10739 10751 10746 10754 10759 10764 10772 10776 10780 10785 10789 10793 10795 10797 10799 10802 10804 10806 10807 10808 10810 10809 10810 10810 10811 10812 10814 10816
10699 10693 10687 10682 10677 10673 10671 10668 10662 10659 10657 10653 10655 10659 10669 10671 10678 10687 10697 10703 10712 10724 10731 10738 10749 10754 10759 10761 10768 10771 10777 10781 10786 10788 10791 10793 10795 10799 10800 10802 10803 10805 10805 10805 10804 10805 10805 10808 10810
10693 10687 10682 10675 10668 10666 10662 10658 10654 10652 10650 10646 10643 10650 10656 10658 10665 10672 10682 10685 10694 10709 10722 10739 10742 10744 10744 10749 10757 10766 10769 10772 10778 10781 10785 10787 10789 10792 10794 10796 10798 10800 10799 10800 10797 10797 10798 10801 10803
10685 10682 10677 10670 10664 10658 10655 10652 10648 10645 10642 10639 10635 10646 10646 10647 10652 10657 10667 10669 10683 10698 10715 10721 10722 10724 10727 10742 10750 10756 10757 10765 10771 10774 10778 10781 10783 10786 10787 10790 10792 10793 10794 10792 10790 10790 10790 10796 10799
10680 10675 10670 10664 10657 10651 10649 10646 10642 10639 10635 10633 10629 10633 10632 10633 10638 10641 10648 10656 10666 10684 10706 10706 10714 10716 10720 10728 10738 10746 10750 10761 10764 10767 10771 10773 10777 10779 10781 10783 10785 10785 10784 10781 10784 10784 10784 10789 10793
10676 10671 10665 10661 10656 10650 10646 10642 10637 10634 10630 10627 10624 10623 10626 10622 10625 10629 10639 10646 10653 10669 10680 10687 10692 10705 10715 10716 10728 10733 10739 10749 10756 10760 10764 10767 10770 10772 10773 10776 10776 10774 10773 10776 10777 10778 10778 10780 10785
10672 10666 10661 10656 10650 10644 10642 10638 10633 10629 10626 10620 10617 10615 10618 10614 10614 10622 10627 10630 10636 10648 10660 10666 10673 10679 10691 10704 10712 10722 10731 10737 10744 10747 10753 10758 10761 10761 10765 10765 10764 10764 10766 10769 10770 10771 10771 10773 10775
10668 10663 10657 10650 10645 10639 10634 10630 10627 10623 10619 10614 10610 10607 10609 10610 10607 10609 10610 10612 10621 10631 10640 10645 10660 10672 10675 10690 10698 10706 10713 10720 10726 10730 10737 10743 10748 10749 10751 10752 10752 10754 10756 10760 10760 10762 10763 10765 10767
10664 10659 10654 10648 10641 10634 10628 10624 10621 10617 10612 10608 10604 10600 10598 10601 10599 10598 10598 10603 10609 10616 10624 10635 10644 10657 10667 10672 10681 10691 10697 10704 10707 10716 10724 10731 10733 10735 10739 10741 10740 10741 10747 10750 10751 10753 10754 10755 10757
10658 10653 10648 10643 10638 10630 10624 10618 10613 10610 10605 10602 10598 10595 10591 10590 10590 10590 10588 10591 10595 10598 10608 10618 10626 10642 10654 10657 10665 10675 10682 10682 10691 10700 10709 10720 10725 10724 10726 10725 10725 10729 10733 10736 10739 10743 10744 10745 10747
10654 10648 10642 10634 10631 10625 10617 10611 10605 10602 10600 10596 10591 10588 10584 10582 10580 10577 10577 10579 10580 10585 10593 10601 10615 10625 10634 10643 10648 10658 10666 10668 10677 10682 10695 10709 10714 10713 10706 10706 10709 10717 10721 10725 10728 10728 10730 10732 10735
10648 10642 10636 10629 10623 10618 10610 10603 10598 10596 10592 10588 10585 10581 10577 10573 10571 10566 10566 10566 10567 10569 10577 10586 10599 10609 10618 10626 10634 10647 10653 10657 10665 10671 10684 10694 10699 10696 10692 10692 10695 10703 10706 10710 10714 10716 10717 10717 10719
10641 10635 10631 10624 10619 10612 10605 10598 10589 10585 10584 10580 10577 10574 10569 10565 10560 10557 10554 10553 10556 10557 10561 10570 10581 10592 10601 10610 10619 10627 10636 10645 10650 10658 10673 10680 10683 10686 10677 10675 10680 10687 10691 10694 10697 10699 10700 10703 10706
10634 10629 10623 10618 10612 10605 10597 10590 10583 10577 10573 10569 10567 10563 10560 10555 10548 10547 10543 10542 10542 10544 10548 10552 10563 10575 10585 10594 10602 10613 10621 10631 10635 10644 10659 10664 10667 10668 10663 10662 10664 10671 10675 10678 10679 10683 10685 10688 10691
10626 10620 10616 10610 10605 10599 10591 10580 10575 10568 10562 10560 10555 10551 10549 10544 10537 10535 10532 10530 10529 10531 10534 10539 10546 10558 10566 10578 10589 10596 10605 10614 10619 10624 10641 10647 10652 10656 10653 10652 10652 10657 10659 10662 10664 10665 10669 10674 10679
10617 10612 10607 10603 10598 10592 10582 10572 10565 10559 10551 10544 10542 10538 10534 10531 10525 10521 10518 10517 10515 10516 10520 10526 10528 10537 10550 10560 10572 10579 10586 10594 10603 10608 10620 10631 10636 10639 10639 10640 10640 10643 10647 10647 10651 10654 10657 10663 10667
10608 10602 10598 10595 10591 10587 10576 10562 10557 10548 10542 10533 10529 10525 10520 10515 10511 10507 10504 10502 10501 10502 10504 10509 10515 10523 10531 10540 10551 10562 10570 10578 10585 10591 10599 10611 10619 10623 10623 10626 10627 10629 10629 10632 10638 10642 10647 10650 10654
10599 10594 10587 10582 10580 10576 10569 10555 10543 10536 10531 10523 10516 10509 10504 10499 10494 10492 10491 10487 10487 10488 10488 10494 10500 10506 10513 10523 10532 10540 10549 10560 10567 10573 10581 10593 10601 10607 10611 10613 10614 10614 10618 10617 10620 10630 10635 10635 10641
10588 10583 10579 10571 10565 10565 10559 10549 10531 10521 10515 10507 10502 10496 10490 10483 10479 10477 10475 10473 10471 10472 10473 10475 10482 10488 10494 10500 10511 10520 10529 10541 10550 10558 10567 10576 10583 10590 10596 10599 10597 10602 10607 10606 10607 10613 10620 10622 10627
10576 10571 10565 10559 10553 10548 10540 10530 10515 10503 10499 10492 10483 10478 10470 10466 10463 10461 10459 10457 10456 10456 10458 10459 10463 10470 10476 10480 10489 10500 10510 10520 10531 10537 10545 10556 10567 10574 10578 10582 10584 10589 10593 10596 10597 10601 10602 10605 10611
10562 10557 10551 10548 10541 10530 10523 10522 10505 10488 10484 10475 10465 10458 10451 10448 10444 10443 10442 10441 10439 10440 10442 10444 10446 10451 10457 10462 10467 10477 10486 10496 10508 10518 10528 10538 10546 10556 10561 10568 10571 10574 10580 10582 10584 10587 10591 10593 10594
10546 10540 10535 10531 10525 10517 10501 10509 10495 10477 10466 10457 10445 10438 10432 10428 10425 10425 10425 10425 10424 10424 10426 10428 10429 10432 10437 10443 10447 10456 10464 10473 10483 10498 10510 10519 10526 10535 10542 10551 10556 10559 10565 10569 10570 10573 10578 10582 10585
10533 10525 10519 10514 10507 10500 10484 10476 10470 10459 10448 10438 10429 10419 10411 10410 10408 10405 10405 10405 10407 10408 10409 10411 10413 10414 10418 10422 10427 10433 10443 10452 10463 10475 10487 10498 10508 10515 10525 10532 10539 10543 10548 10552 10556 10559 10563 10569 10574
10517 10509 10502 10497 10490 10481 10465 10458 10451 10431 10424 10418 10408 10399 10390 10388 10385 10387 10384 10385 10387 10389 10391 10392 10395 10397 10400 10403 10407 10412 10418 10430 10439 10452 10464 10476 10486 10495 10502 10511 10518 10523 10531 10535 10539 10545 10550 10555 10560
10499 10490 10483 10478 10470 10460 10448 10437 10424 10406 10394 10388 10385 10379 10373 10370 10366 10364 10363 10363 10363 10365 10368 10370 10374 10377 10380 10382 10387 10392 10397 10404 10418 10430 10443 10453 10465 10471 10481 10489 10497 10503 10511 10518 10524 10529 10535 10541 10547
10483 10472 10458 10451 10447 10447 10427 10409 10398 10381 10362 10354 10353 10352 10345 10343 10341 10340 10339 10339 10338 10340 10343 10346 10348 10352 10356 10361 10365 10370 10376 10382 10389 10403 10418 10431 10441 10450 10455 10465 10473 10483 10493 10501 10507 10513 10519 10524 10531
10467 10457 10443 10430 10419 10412 10407 10394 10373 10350 10337 10330 10323 10325 10322 10318 10315 10313 10310 10310 10312 10314 10316 10319 10323 10327 10331 10335 10340 10344 10351 10359 10367 10375 10390 10400 10410 10425 10431 10439 10450 10462 10472 10480 10489 10496 10503 10509 10513
10446 10434 10420 10402 10387 10380 10380 10374 10337 10326 10316 10310 10300 10294 10290 10289 10285 10282 10278 10278 10279 10281 10283 10284 10291 10298 10304 10309 10314 10318 10323 10331 10341 10350 10361 10372 10385 10398 10405 10417 10428 10440 10449 10458 10467 10478 10485 10493 10499
10429 10415 10399 10384 10361 10344 10338 10361 10319 10293 10285 10281 10279 10275 10267 10258 10253 10248 10246 10243 10241 10241 10244 10251 10256 10262 10269 10276 10284 10291 10299 10304 10312 10324 10334 10344 10355 10369 10379 10389 10401 10414 10424 10434 10444 10456 10466 10474 10480
10412 10395 10376 10356 10354 10335 10313 10326 10303 10274 10261 10250 10243 10235 10235 10228 10221 10217 10213 10211 10209 10210 10213 10216 10221 10229 10240 10248 10254 10262 10270 10280 10287 10296 10307 10318 10328 10340 10350 10362 10373 10386 10400 10409 10420 10432 10445 10454 10465